Simultaneous Nadir Overpasses (SNOs) Predictions

Prediction of SNOs near US between NOAA-19 and NPP Satellite Orbit:

Table of predicted SNOs near US for the next 10.0 days since TLE Epoch: 3/11/2012
<
Index Date (NOAA-19) Time (NOAA-19) NOAA-19 Lat,Lon Date (NPP) Time (NPP) NPP Lat,Lon Distance(km) Time Diff (sec)
1 03/15/2012 09:01:47 49.92,-101.84 03/15/2012 09:07:18 50.58,-105.14 245.75 331
2 03/15/2012 18:49:46 42.41, -87.59 03/15/2012 18:51:58 41.92, -89.85 194.16 132
3 03/15/2012 20:32:26 44.40,-113.84 03/15/2012 20:34:03 43.95,-115.95 175.32 97
4 03/16/2012 07:11:01 42.84, -76.49 03/16/2012 07:08:56 43.12, -78.02 128.23 125
5 03/16/2012 08:53:43 40.74,-102.76 03/16/2012 08:51:02 41.03,-104.13 119.71 161
6 03/16/2012 18:41:13 49.99, -87.95 03/16/2012 18:35:14 49.91, -88.24 21.92 359
7 03/16/2012 20:23:18
